Year,Month,Day,Hour,Minute,Value (Times are PST for temperature in C)
2013,08,04,00,00,14.80
2013,08,04,00,03,14.80
2013,08,04,00,04,14.80
2013,08,04,00,05,14.80
2013,08,04,00,06,14.80
2013,08,04,00,08,14.80
2013,08,04,00,09,14.70
2013,08,04,00,10,14.70
2013,08,04,00,12,14.70
2013,08,04,00,13,14.70
2013,08,04,00,14,14.70
2013,08,04,00,15,14.70
2013,08,04,00,17,14.60
2013,08,04,00,18,14.60
2013,08,04,00,19,14.60
2013,08,04,00,20,14.60
2013,08,04,00,22,14.60
2013,08,04,00,23,14.60
2013,08,04,00,24,14.60
2013,08,04,00,26,14.50
2013,08,04,00,27,14.50
2013,08,04,00,28,14.50
2013,08,04,00,29,14.50
2013,08,04,00,31,14.50
2013,08,04,00,32,14.50
2013,08,04,00,33,14.50
2013,08,04,00,35,14.50
2013,08,04,00,36,14.50
2013,08,04,00,37,14.50
2013,08,04,00,38,14.50
2013,08,04,00,40,14.50
2013,08,04,00,41,14.40
2013,08,04,00,42,14.40
2013,08,04,00,43,14.40
2013,08,04,00,45,14.40
2013,08,04,00,46,14.40
2013,08,04,00,47,14.40
2013,08,04,00,48,14.40
2013,08,04,00,50,14.40
2013,08,04,00,51,14.40
2013,08,04,00,52,14.30
2013,08,04,00,54,14.30
2013,08,04,00,55,14.30
2013,08,04,00,56,14.30
2013,08,04,00,57,14.30
2013,08,04,00,59,14.30
2013,08,04,01,00,14.30
2013,08,04,01,01,14.30
2013,08,04,01,02,14.30
2013,08,04,01,04,14.30
2013,08,04,01,05,14.20
2013,08,04,01,06,14.20
2013,08,04,01,07,14.20
2013,08,04,01,09,14.20
2013,08,04,01,10,14.20
2013,08,04,01,11,14.20
2013,08,04,01,12,14.20
2013,08,04,01,14,14.20
2013,08,04,01,15,14.20
2013,08,04,01,16,14.10
2013,08,04,01,17,14.10
2013,08,04,01,19,14.10
2013,08,04,01,20,14.10
2013,08,04,01,21,14.10
2013,08,04,01,22,14.10
2013,08,04,01,24,14.10
2013,08,04,01,25,14.10
2013,08,04,01,26,14.10
2013,08,04,01,27,14.10
2013,08,04,01,29,14.10
2013,08,04,01,30,14.00
2013,08,04,01,31,14.00
2013,08,04,01,33,14.00
2013,08,04,01,34,14.00
2013,08,04,01,35,14.00
2013,08,04,01,36,13.90
2013,08,04,01,38,13.90
2013,08,04,01,39,13.90
2013,08,04,01,41,13.90
2013,08,04,01,42,13.90
2013,08,04,01,43,13.90
2013,08,04,01,45,13.90
2013,08,04,01,46,13.90
2013,08,04,01,47,13.90
2013,08,04,01,49,13.90
2013,08,04,01,50,13.90
2013,08,04,01,51,13.90
2013,08,04,01,52,13.90
2013,08,04,01,54,13.90
2013,08,04,01,55,13.90
2013,08,04,01,56,13.90
2013,08,04,01,57,13.90
2013,08,04,01,59,13.90
2013,08,04,02,00,13.90
2013,08,04,02,01,13.90
2013,08,04,02,03,13.90
2013,08,04,02,04,13.90
2013,08,04,02,05,13.90
2013,08,04,02,07,13.90
2013,08,04,02,08,13.90
2013,08,04,02,09,14.00
2013,08,04,02,10,14.00
2013,08,04,02,11,14.00
2013,08,04,02,12,14.00
2013,08,04,02,14,14.00
2013,08,04,02,15,13.90
2013,08,04,02,16,13.90
2013,08,04,02,18,13.90
2013,08,04,02,19,13.90
2013,08,04,02,20,13.90
2013,08,04,02,21,13.80
2013,08,04,02,22,13.80
2013,08,04,02,24,13.80
2013,08,04,02,25,13.80
2013,08,04,02,26,13.80
2013,08,04,02,27,13.80
2013,08,04,02,29,13.80
2013,08,04,02,30,13.80
2013,08,04,02,31,13.80
2013,08,04,02,32,13.70
2013,08,04,02,33,13.70
2013,08,04,02,35,13.70
2013,08,04,02,36,13.70
2013,08,04,02,37,13.70
2013,08,04,02,38,13.70
2013,08,04,02,39,13.70
2013,08,04,02,40,13.70
2013,08,04,02,41,13.70
2013,08,04,02,42,13.70
2013,08,04,02,44,13.70
2013,08,04,02,45,13.70
2013,08,04,02,46,13.70
2013,08,04,02,48,13.70
2013,08,04,02,49,13.70
2013,08,04,02,50,13.70
2013,08,04,02,51,13.70
2013,08,04,02,52,13.70
2013,08,04,02,53,13.60
2013,08,04,02,54,13.60
2013,08,04,02,55,13.60
2013,08,04,02,57,13.60
2013,08,04,02,58,13.60
2013,08,04,02,59,13.60
2013,08,04,03,00,13.60
2013,08,04,03,02,13.60
2013,08,04,03,03,13.60
2013,08,04,03,04,13.50
2013,08,04,03,05,13.50
2013,08,04,03,07,13.50
2013,08,04,03,08,13.50
2013,08,04,03,09,13.50
2013,08,04,03,10,13.50
2013,08,04,03,11,13.50
2013,08,04,03,12,13.60
2013,08,04,03,13,13.60
2013,08,04,03,14,13.60
2013,08,04,03,15,13.60
2013,08,04,03,16,13.60
2013,08,04,03,18,13.60
2013,08,04,03,19,13.60
2013,08,04,03,20,13.60
2013,08,04,03,21,13.60
2013,08,04,03,22,13.60
2013,08,04,03,23,13.60
2013,08,04,03,24,13.60
2013,08,04,03,25,13.60
2013,08,04,03,26,13.60
2013,08,04,03,27,13.60
2013,08,04,03,29,13.50
2013,08,04,03,30,13.50
2013,08,04,03,31,13.50
2013,08,04,03,32,13.50
2013,08,04,03,33,13.50
2013,08,04,03,34,13.40
2013,08,04,03,35,13.40
2013,08,04,03,36,13.40
2013,08,04,03,37,13.40
2013,08,04,03,38,13.40
2013,08,04,03,39,13.40
2013,08,04,03,41,13.40
2013,08,04,03,42,13.40
2013,08,04,03,43,13.30
2013,08,04,03,44,13.30
2013,08,04,03,46,13.30
2013,08,04,03,47,13.30
2013,08,04,03,48,13.30
2013,08,04,03,49,13.30
2013,08,04,03,51,13.30
2013,08,04,03,52,13.30
2013,08,04,03,54,13.30
2013,08,04,03,56,13.30
2013,08,04,03,58,13.30
2013,08,04,03,59,13.30
2013,08,04,04,01,13.30
2013,08,04,04,02,13.30
2013,08,04,04,03,13.20
2013,08,04,04,04,13.30
2013,08,04,04,06,13.20
2013,08,04,04,07,13.20
2013,08,04,04,08,13.20
2013,08,04,04,09,13.20
2013,08,04,04,10,13.20
2013,08,04,04,11,13.20
2013,08,04,04,12,13.20
2013,08,04,04,13,13.20
2013,08,04,04,14,13.20
2013,08,04,04,15,13.20
2013,08,04,04,16,13.20
2013,08,04,04,18,13.20
2013,08,04,04,19,13.20
2013,08,04,04,20,13.20
2013,08,04,04,21,13.20
2013,08,04,04,22,13.20
2013,08,04,04,23,13.20
2013,08,04,04,24,13.20
2013,08,04,04,26,13.20
2013,08,04,04,27,13.20
2013,08,04,04,28,13.20
2013,08,04,04,30,13.20
2013,08,04,04,31,13.20
2013,08,04,04,32,13.20
2013,08,04,04,33,13.20
2013,08,04,04,35,13.20
2013,08,04,04,36,13.20
2013,08,04,04,37,13.20
2013,08,04,04,38,13.10
2013,08,04,04,39,13.10
2013,08,04,04,40,13.10
2013,08,04,04,41,13.10
2013,08,04,04,42,13.10
2013,08,04,04,44,13.00
2013,08,04,04,46,13.00
2013,08,04,04,47,13.00
2013,08,04,04,48,13.00
2013,08,04,04,49,13.00
2013,08,04,04,51,12.90
2013,08,04,04,52,12.90
2013,08,04,04,53,12.90
2013,08,04,04,54,12.90
2013,08,04,04,56,12.90
2013,08,04,04,57,12.90
2013,08,04,04,58,12.90
2013,08,04,04,59,12.90
2013,08,04,05,00,12.90
2013,08,04,05,01,12.90
2013,08,04,05,02,12.90
2013,08,04,05,03,12.90
2013,08,04,05,04,12.90
2013,08,04,05,07,12.90
2013,08,04,05,08,12.90
2013,08,04,05,09,12.90
2013,08,04,05,10,12.90
2013,08,04,05,11,12.90
2013,08,04,05,12,12.90
2013,08,04,05,13,13.00
2013,08,04,05,14,12.90
2013,08,04,05,15,13.00
2013,08,04,05,16,13.00
2013,08,04,05,17,13.00
2013,08,04,05,18,13.00
2013,08,04,05,19,13.00
2013,08,04,05,21,13.00
2013,08,04,05,22,13.00
2013,08,04,05,23,13.00
2013,08,04,05,25,13.00
2013,08,04,05,26,13.00
2013,08,04,05,27,13.00
2013,08,04,05,28,13.00
2013,08,04,05,30,13.00
2013,08,04,05,31,13.00
2013,08,04,05,32,13.00
2013,08,04,05,33,13.00
2013,08,04,05,35,13.00
2013,08,04,05,36,13.10
2013,08,04,05,37,13.10
2013,08,04,05,38,13.10
2013,08,04,05,39,13.10
2013,08,04,05,41,13.10
2013,08,04,05,42,13.10
2013,08,04,05,44,13.10
2013,08,04,05,46,13.10
2013,08,04,05,47,13.10
2013,08,04,05,48,13.10
2013,08,04,05,49,13.10
2013,08,04,05,50,13.20
2013,08,04,05,51,13.20
2013,08,04,05,52,13.20
2013,08,04,05,53,13.20
2013,08,04,05,54,13.30
2013,08,04,05,55,13.30
2013,08,04,05,56,13.30
2013,08,04,05,57,13.30
2013,08,04,05,58,13.30
2013,08,04,05,59,13.30
2013,08,04,06,00,13.30
2013,08,04,06,01,13.30
2013,08,04,06,02,13.30
2013,08,04,06,03,13.30
2013,08,04,06,04,13.30
2013,08,04,06,06,13.30
2013,08,04,06,07,13.30
2013,08,04,06,08,13.30
2013,08,04,06,09,13.30
2013,08,04,06,11,13.30
2013,08,04,06,12,13.30
2013,08,04,06,13,13.40
2013,08,04,06,14,13.40
2013,08,04,06,16,13.50
2013,08,04,06,17,13.60
2013,08,04,06,18,13.60
2013,08,04,06,19,13.60
2013,08,04,06,21,13.60
2013,08,04,06,22,13.60
2013,08,04,06,23,13.60
2013,08,04,06,24,13.60
2013,08,04,06,26,13.60
2013,08,04,06,27,13.60
2013,08,04,06,28,13.50
2013,08,04,06,30,13.40
2013,08,04,06,31,13.40
2013,08,04,06,32,13.40
2013,08,04,06,33,13.40
2013,08,04,06,35,13.40
2013,08,04,06,36,13.30
2013,08,04,06,37,13.20
2013,08,04,06,38,13.10
2013,08,04,06,39,13.10
2013,08,04,06,41,12.90
2013,08,04,06,42,12.90
2013,08,04,06,43,12.80
2013,08,04,06,44,12.80
2013,08,04,06,46,12.70
2013,08,04,06,47,12.70
2013,08,04,06,48,12.70
2013,08,04,06,49,12.70
2013,08,04,06,51,12.60
2013,08,04,06,52,12.60
2013,08,04,06,53,12.60
2013,08,04,06,54,12.60
2013,08,04,06,56,12.60
2013,08,04,06,57,12.60
2013,08,04,06,58,12.60
2013,08,04,06,59,12.60
2013,08,04,07,00,12.60
2013,08,04,07,01,12.60
2013,08,04,07,02,12.60
2013,08,04,07,03,12.70
2013,08,04,07,04,12.70
2013,08,04,07,05,12.70
2013,08,04,07,06,12.70
2013,08,04,07,08,12.80
2013,08,04,07,09,12.80
2013,08,04,07,10,12.90
2013,08,04,07,11,12.90
2013,08,04,07,12,12.90
2013,08,04,07,13,12.90
2013,08,04,07,14,12.90
2013,08,04,07,15,13.00
2013,08,04,07,16,13.10
2013,08,04,07,17,13.10
2013,08,04,07,18,13.10
2013,08,04,07,19,13.10
2013,08,04,07,20,13.20
2013,08,04,07,21,13.20
2013,08,04,07,22,13.20
2013,08,04,07,23,13.20
2013,08,04,07,24,13.20
2013,08,04,07,26,13.30
2013,08,04,07,27,13.30
2013,08,04,07,29,13.30
2013,08,04,07,31,13.40
2013,08,04,07,32,13.40
2013,08,04,07,33,13.40
2013,08,04,07,34,13.50
2013,08,04,07,36,13.60
2013,08,04,07,37,13.70
2013,08,04,07,38,13.70
2013,08,04,07,39,13.70
2013,08,04,07,40,13.80
2013,08,04,07,42,13.80
2013,08,04,07,43,13.90
2013,08,04,07,44,13.90
2013,08,04,07,45,14.00
2013,08,04,07,47,14.10
2013,08,04,07,48,14.20
2013,08,04,07,49,14.20
2013,08,04,07,50,14.30
2013,08,04,07,52,14.30
2013,08,04,07,53,14.40
2013,08,04,07,54,14.50
2013,08,04,07,55,14.60
2013,08,04,07,57,14.60
2013,08,04,07,58,14.70
2013,08,04,07,59,14.80
2013,08,04,08,01,14.80
2013,08,04,08,02,14.90
2013,08,04,08,03,14.90
2013,08,04,08,05,14.90
2013,08,04,08,06,15.00
2013,08,04,08,07,15.10
2013,08,04,08,08,15.10
2013,08,04,08,09,15.10
2013,08,04,08,10,15.20
2013,08,04,08,11,15.20
2013,08,04,08,13,15.30
2013,08,04,08,14,15.30
2013,08,04,08,15,15.30
2013,08,04,08,16,15.30
2013,08,04,08,17,15.30
2013,08,04,08,18,15.30
2013,08,04,08,19,15.40
2013,08,04,08,20,15.40
2013,08,04,08,22,15.40
2013,08,04,08,23,15.50
2013,08,04,08,24,15.50
2013,08,04,08,25,15.60
2013,08,04,08,26,15.60
2013,08,04,08,27,15.70
2013,08,04,08,28,15.70
2013,08,04,08,29,15.80
2013,08,04,08,30,15.80
2013,08,04,08,32,15.90
2013,08,04,08,33,15.90
2013,08,04,08,34,16.00
2013,08,04,08,36,16.10
2013,08,04,08,37,16.10
2013,08,04,08,38,16.20
2013,08,04,08,39,16.20
2013,08,04,08,41,16.20
2013,08,04,08,42,16.30
2013,08,04,08,43,16.30
2013,08,04,08,44,16.30
2013,08,04,08,46,16.40
2013,08,04,08,47,16.40
2013,08,04,08,48,16.50
2013,08,04,08,49,16.60
2013,08,04,08,51,16.60
2013,08,04,08,52,16.70
2013,08,04,08,53,16.70
2013,08,04,08,54,16.80
2013,08,04,08,55,16.80
2013,08,04,08,57,16.80
2013,08,04,08,58,16.80
2013,08,04,08,59,16.80
2013,08,04,09,00,16.80
2013,08,04,09,01,16.80
2013,08,04,09,03,16.90
2013,08,04,09,04,16.90
2013,08,04,09,05,17.00
2013,08,04,09,07,17.10
2013,08,04,09,08,17.10
2013,08,04,09,09,17.10
2013,08,04,09,10,17.20
2013,08,04,09,11,17.20
2013,08,04,09,13,17.30
2013,08,04,09,14,17.30
2013,08,04,09,15,17.40
2013,08,04,09,17,17.40
2013,08,04,09,18,17.60
2013,08,04,09,19,17.60
2013,08,04,09,21,17.60
2013,08,04,09,22,17.70
2013,08,04,09,23,17.70
2013,08,04,09,24,17.80
2013,08,04,09,26,17.80
2013,08,04,09,27,17.90
2013,08,04,09,28,18.00
2013,08,04,09,29,18.00
2013,08,04,09,31,18.10
2013,08,04,09,32,18.10
2013,08,04,09,33,18.10
2013,08,04,09,34,18.20
2013,08,04,09,35,18.20
2013,08,04,09,37,18.20
2013,08,04,09,38,18.30
2013,08,04,09,39,18.30
2013,08,04,09,40,18.40
2013,08,04,09,42,18.40
2013,08,04,09,43,18.40
2013,08,04,09,44,18.50
2013,08,04,09,45,18.60
2013,08,04,09,47,18.60
2013,08,04,09,48,18.70
2013,08,04,09,49,18.70
2013,08,04,09,50,18.70
2013,08,04,09,51,18.80
2013,08,04,09,52,18.80
2013,08,04,09,53,18.80
2013,08,04,09,54,18.80
2013,08,04,09,55,18.90
2013,08,04,09,57,18.90
2013,08,04,09,58,19.10
2013,08,04,09,59,19.10
2013,08,04,10,00,19.10
2013,08,04,10,01,19.10
2013,08,04,10,03,19.20
2013,08,04,10,04,19.20
2013,08,04,10,05,19.20
2013,08,04,10,06,19.20
2013,08,04,10,07,19.20
2013,08,04,10,08,19.20
2013,08,04,10,09,19.20
2013,08,04,10,10,19.20
2013,08,04,10,11,19.20
2013,08,04,10,13,19.20
2013,08,04,10,14,19.20
2013,08,04,10,15,19.20
2013,08,04,10,17,19.20
2013,08,04,10,18,19.30
2013,08,04,10,19,19.30
2013,08,04,10,20,19.30
2013,08,04,10,21,19.40
2013,08,04,10,22,19.40
2013,08,04,10,23,19.40
2013,08,04,10,24,19.30
2013,08,04,10,25,19.30
2013,08,04,10,27,19.30
2013,08,04,10,28,19.30
2013,08,04,10,29,19.40
2013,08,04,10,30,19.40
2013,08,04,10,32,19.50
2013,08,04,10,33,19.60
2013,08,04,10,34,19.60
2013,08,04,10,35,19.60
2013,08,04,10,37,19.70
2013,08,04,10,38,19.70
2013,08,04,10,39,19.80
2013,08,04,10,41,19.80
2013,08,04,10,42,19.80
2013,08,04,10,43,19.80
2013,08,04,10,44,19.80
2013,08,04,10,45,19.80
2013,08,04,10,46,19.80
2013,08,04,10,47,19.90
2013,08,04,10,48,19.90
2013,08,04,10,49,19.90
2013,08,04,10,50,19.90
2013,08,04,10,52,20.00
2013,08,04,10,53,20.00
2013,08,04,10,54,20.00
2013,08,04,10,55,20.00
2013,08,04,10,57,20.10
2013,08,04,10,58,20.10
2013,08,04,10,59,20.20
2013,08,04,11,01,20.20
2013,08,04,11,02,20.20
2013,08,04,11,03,20.20
2013,08,04,11,04,20.30
2013,08,04,11,06,20.30
2013,08,04,11,07,20.40
2013,08,04,11,08,20.30
2013,08,04,11,09,20.30
2013,08,04,11,11,20.30
2013,08,04,11,12,20.40
2013,08,04,11,13,20.60
2013,08,04,11,14,20.60
2013,08,04,11,15,20.60
2013,08,04,11,16,20.60
2013,08,04,11,17,20.60
2013,08,04,11,18,20.60
2013,08,04,11,19,20.60
2013,08,04,11,20,20.70
2013,08,04,11,22,20.70
2013,08,04,11,23,20.60
2013,08,04,11,26,20.60
2013,08,04,11,27,20.50
2013,08,04,11,28,20.40
2013,08,04,11,29,20.40
2013,08,04,11,30,20.40
2013,08,04,11,31,20.40
2013,08,04,11,32,20.40
2013,08,04,11,33,20.50
2013,08,04,11,34,20.50
2013,08,04,11,36,20.60
2013,08,04,11,37,20.50
2013,08,04,11,38,20.50
2013,08,04,11,39,20.40
2013,08,04,11,41,20.40
2013,08,04,11,42,20.30
2013,08,04,11,43,20.30
2013,08,04,11,44,20.30
2013,08,04,11,46,20.30
2013,08,04,11,47,20.40
2013,08,04,11,48,20.70
2013,08,04,11,49,20.80
2013,08,04,11,50,20.80
2013,08,04,11,51,20.90
2013,08,04,11,53,20.90
2013,08,04,11,54,20.90
2013,08,04,11,55,20.90
2013,08,04,11,56,20.80
2013,08,04,11,58,20.80
2013,08,04,11,59,20.90
2013,08,04,12,00,20.90
2013,08,04,12,01,21.10
2013,08,04,12,03,21.10
2013,08,04,12,04,21.10
2013,08,04,12,05,21.20
2013,08,04,12,06,21.20
2013,08,04,12,08,21.20
2013,08,04,12,09,21.30
2013,08,04,12,10,21.30
2013,08,04,12,11,21.30
2013,08,04,12,12,21.20
2013,08,04,12,14,21.20
2013,08,04,12,15,21.10
2013,08,04,12,16,21.10
2013,08,04,12,17,21.10
2013,08,04,12,19,21.10
2013,08,04,12,20,21.00
2013,08,04,12,21,21.00
2013,08,04,12,23,21.10
2013,08,04,12,24,21.10
2013,08,04,12,25,21.20
2013,08,04,12,26,21.20
2013,08,04,12,28,21.30
2013,08,04,12,29,21.30
2013,08,04,12,30,21.30
2013,08,04,12,31,21.40
2013,08,04,12,32,21.60
2013,08,04,12,34,21.70
2013,08,04,12,35,21.90
2013,08,04,12,36,21.90
2013,08,04,12,37,21.90
2013,08,04,12,38,21.90
2013,08,04,12,40,21.90
2013,08,04,12,41,21.90
2013,08,04,12,42,21.80
2013,08,04,12,43,21.80
2013,08,04,12,45,21.80
2013,08,04,12,46,21.80
2013,08,04,12,47,21.80
2013,08,04,12,48,21.90
2013,08,04,12,50,22.00
2013,08,04,12,51,22.00
2013,08,04,12,52,22.00
2013,08,04,12,53,22.00
2013,08,04,12,54,22.10
2013,08,04,12,56,22.10
2013,08,04,12,57,22.20
2013,08,04,12,58,22.20
2013,08,04,13,00,22.20
2013,08,04,13,01,22.20
2013,08,04,13,02,22.30
2013,08,04,13,03,22.30
2013,08,04,13,05,22.30
2013,08,04,13,06,22.40
2013,08,04,13,07,22.60
2013,08,04,13,08,22.60
2013,08,04,13,09,22.60
2013,08,04,13,11,22.60
2013,08,04,13,12,22.70
2013,08,04,13,13,22.70
2013,08,04,13,15,22.80
2013,08,04,13,16,22.90
2013,08,04,13,17,22.90
2013,08,04,13,18,23.00
2013,08,04,13,19,23.10
2013,08,04,13,21,23.10
2013,08,04,13,22,23.10
2013,08,04,13,23,23.20
2013,08,04,13,24,23.20
2013,08,04,13,26,23.20
2013,08,04,13,27,23.10
2013,08,04,13,29,22.90
2013,08,04,13,31,22.80
2013,08,04,13,32,22.70
2013,08,04,13,33,22.70
2013,08,04,13,35,22.70
2013,08,04,13,36,22.80
2013,08,04,13,37,22.80
2013,08,04,13,38,22.90
2013,08,04,13,40,22.90
2013,08,04,13,41,23.10
2013,08,04,13,42,23.20
2013,08,04,13,43,23.20
2013,08,04,13,44,23.20
2013,08,04,13,46,23.10
2013,08,04,13,47,23.00
2013,08,04,13,49,22.90
2013,08,04,13,51,22.90
2013,08,04,13,53,23.00
2013,08,04,13,54,23.20
2013,08,04,13,55,23.20
2013,08,04,13,56,23.20
2013,08,04,13,57,23.20
2013,08,04,13,58,23.20
2013,08,04,13,59,23.10
2013,08,04,14,01,23.10
2013,08,04,14,02,23.10
2013,08,04,14,03,23.20
2013,08,04,14,04,23.30
2013,08,04,14,05,23.30
2013,08,04,14,07,23.40
2013,08,04,14,08,23.40
2013,08,04,14,09,23.40
2013,08,04,14,11,23.40
2013,08,04,14,12,23.50
2013,08,04,14,13,23.60
2013,08,04,14,14,23.60
2013,08,04,14,16,23.60
2013,08,04,14,17,23.60
2013,08,04,14,18,23.60
2013,08,04,14,19,23.60
2013,08,04,14,20,23.60
2013,08,04,14,21,23.60
2013,08,04,14,22,23.70
2013,08,04,14,23,23.70
2013,08,04,14,25,23.70
2013,08,04,14,26,23.70
2013,08,04,14,27,23.70
2013,08,04,14,28,23.50
2013,08,04,14,29,23.40
2013,08,04,14,30,23.30
2013,08,04,14,31,23.20
2013,08,04,14,32,23.10
2013,08,04,14,33,23.10
2013,08,04,14,35,23.00
2013,08,04,14,36,23.10
2013,08,04,14,37,23.20
2013,08,04,14,38,23.30
2013,08,04,14,40,23.40
2013,08,04,14,41,23.60
2013,08,04,14,42,23.70
2013,08,04,14,44,23.70
2013,08,04,14,46,23.70
2013,08,04,14,47,23.70
2013,08,04,14,48,23.70
2013,08,04,14,49,23.60
2013,08,04,14,50,23.60
2013,08,04,14,51,23.60
2013,08,04,14,52,23.60
2013,08,04,14,53,23.70
2013,08,04,14,54,23.70
2013,08,04,14,56,23.80
2013,08,04,14,57,23.80
2013,08,04,14,58,23.80
2013,08,04,14,59,23.90
2013,08,04,15,00,23.90
2013,08,04,15,01,24.00
2013,08,04,15,02,24.10
2013,08,04,15,03,24.20
2013,08,04,15,04,24.20
2013,08,04,15,06,24.20
2013,08,04,15,07,24.30
2013,08,04,15,08,24.30
2013,08,04,15,09,24.30
2013,08,04,15,11,24.50
2013,08,04,15,12,24.50
2013,08,04,15,13,24.50
2013,08,04,15,14,24.60
2013,08,04,15,16,24.30
2013,08,04,15,17,24.30
2013,08,04,15,18,24.20
2013,08,04,15,19,24.20
2013,08,04,15,22,24.20
2013,08,04,15,23,24.10
2013,08,04,15,24,24.00
2013,08,04,15,25,23.90
2013,08,04,15,27,23.90
2013,08,04,15,28,23.90
2013,08,04,15,29,23.90
2013,08,04,15,30,23.80
2013,08,04,15,31,23.80
2013,08,04,15,32,23.80
2013,08,04,15,33,23.80
2013,08,04,15,34,23.80
2013,08,04,15,35,23.80
2013,08,04,15,37,23.80
2013,08,04,15,38,23.80
2013,08,04,15,39,23.60
2013,08,04,15,40,23.60
2013,08,04,15,42,23.60
2013,08,04,15,43,23.70
2013,08,04,15,44,23.90
2013,08,04,15,45,23.90
2013,08,04,15,46,24.10
2013,08,04,15,48,24.10
2013,08,04,15,49,24.10
2013,08,04,15,50,24.10
2013,08,04,15,52,24.00
2013,08,04,15,53,24.00
2013,08,04,15,54,23.90
2013,08,04,15,55,23.90
2013,08,04,15,57,23.90
2013,08,04,15,58,23.90
2013,08,04,15,59,23.80
2013,08,04,16,00,23.80
2013,08,04,16,02,23.80
2013,08,04,16,03,23.80
2013,08,04,16,04,23.80
2013,08,04,16,05,23.80
2013,08,04,16,06,23.90
2013,08,04,16,08,23.90
2013,08,04,16,09,24.10
2013,08,04,16,10,24.10
2013,08,04,16,11,24.10
2013,08,04,16,12,24.00
2013,08,04,16,13,23.90
2013,08,04,16,14,23.90
2013,08,04,16,16,24.00
2013,08,04,16,17,24.00
2013,08,04,16,18,24.00
2013,08,04,16,19,24.00
2013,08,04,16,20,24.00
2013,08,04,16,21,23.90
2013,08,04,16,22,24.00
2013,08,04,16,24,23.90
2013,08,04,16,25,23.90
2013,08,04,16,26,23.80
2013,08,04,16,27,23.90
2013,08,04,16,29,23.80
2013,08,04,16,30,23.80
2013,08,04,16,31,23.70
2013,08,04,16,32,23.60
2013,08,04,16,34,23.50
2013,08,04,16,35,23.50
2013,08,04,16,36,23.60
2013,08,04,16,37,23.60
2013,08,04,16,39,23.70
2013,08,04,16,40,23.80
2013,08,04,16,41,23.90
2013,08,04,16,42,23.90
2013,08,04,16,43,23.90
2013,08,04,16,45,23.90
2013,08,04,16,46,23.90
2013,08,04,16,47,23.90
2013,08,04,16,49,23.80
2013,08,04,16,50,23.80
2013,08,04,16,51,23.80
2013,08,04,16,52,23.80
2013,08,04,16,54,23.90
2013,08,04,16,55,23.90
2013,08,04,16,56,24.00
2013,08,04,16,57,24.00
2013,08,04,16,59,24.00
2013,08,04,17,00,24.00
2013,08,04,17,01,24.10
2013,08,04,17,02,24.10
2013,08,04,17,04,24.10
2013,08,04,17,05,24.20
2013,08,04,17,06,24.20
2013,08,04,17,07,24.20
2013,08,04,17,08,24.20
2013,08,04,17,10,24.20
2013,08,04,17,11,24.20
2013,08,04,17,12,24.20
2013,08,04,17,13,24.30
2013,08,04,17,14,24.30
2013,08,04,17,16,24.20
2013,08,04,17,17,24.20
2013,08,04,17,18,24.20
2013,08,04,17,19,24.20
2013,08,04,17,20,24.20
2013,08,04,17,21,24.20
2013,08,04,17,23,24.30
2013,08,04,17,24,24.30
2013,08,04,17,25,24.30
2013,08,04,17,26,24.30
2013,08,04,17,27,24.20
2013,08,04,17,28,24.10
2013,08,04,17,29,24.00
2013,08,04,17,31,24.00
2013,08,04,17,32,24.00
2013,08,04,17,33,24.00
2013,08,04,17,34,23.90
2013,08,04,17,35,23.80
2013,08,04,17,36,23.80
2013,08,04,17,37,23.70
2013,08,04,17,38,23.70
2013,08,04,17,39,23.70
2013,08,04,17,40,23.60
2013,08,04,17,42,23.60
2013,08,04,17,43,23.60
2013,08,04,17,44,23.60
2013,08,04,17,46,23.60
2013,08,04,17,47,23.60
2013,08,04,17,48,23.60
2013,08,04,17,49,23.60
2013,08,04,17,50,23.60
2013,08,04,17,51,23.60
2013,08,04,17,52,23.50
2013,08,04,17,53,23.50
2013,08,04,17,54,23.40
2013,08,04,17,55,23.30
2013,08,04,17,56,23.30
2013,08,04,17,58,23.20
2013,08,04,17,59,23.10
2013,08,04,18,00,23.00
2013,08,04,18,01,22.90
2013,08,04,18,02,22.90
2013,08,04,18,04,22.90
2013,08,04,18,05,22.80
2013,08,04,18,06,22.80
2013,08,04,18,07,22.80
2013,08,04,18,08,22.70
2013,08,04,18,09,22.70
2013,08,04,18,10,22.60
2013,08,04,18,11,22.60
2013,08,04,18,12,22.50
2013,08,04,18,13,22.40
2013,08,04,18,14,22.40
2013,08,04,18,15,22.40
2013,08,04,18,17,22.40
2013,08,04,18,18,22.30
2013,08,04,18,19,22.20
2013,08,04,18,20,22.20
2013,08,04,18,22,22.20
2013,08,04,18,23,22.20
2013,08,04,18,24,22.20
2013,08,04,18,25,22.20
2013,08,04,18,26,22.20
2013,08,04,18,28,22.20
2013,08,04,18,29,22.30
2013,08,04,18,30,22.30
2013,08,04,18,31,22.30
2013,08,04,18,32,22.40
2013,08,04,18,33,22.40
2013,08,04,18,34,22.30
2013,08,04,18,35,22.30
2013,08,04,18,36,22.20
2013,08,04,18,37,22.20
2013,08,04,18,38,22.10
2013,08,04,18,39,22.10
2013,08,04,18,40,22.00
2013,08,04,18,41,21.90
2013,08,04,18,42,21.90
2013,08,04,18,43,21.90
2013,08,04,18,44,21.90
2013,08,04,18,45,21.90
2013,08,04,18,47,21.80
2013,08,04,18,48,21.80
2013,08,04,18,49,21.90
2013,08,04,18,50,21.90
2013,08,04,18,52,22.00
2013,08,04,18,53,22.10
2013,08,04,18,54,22.10
2013,08,04,18,55,22.10
2013,08,04,18,56,22.10
2013,08,04,18,57,22.10
2013,08,04,18,58,22.10
2013,08,04,18,59,22.10
2013,08,04,19,00,22.10
2013,08,04,19,02,22.20
2013,08,04,19,03,22.20
2013,08,04,19,04,22.20
2013,08,04,19,05,22.30
2013,08,04,19,06,22.30
2013,08,04,19,07,22.30
2013,08,04,19,08,22.30
2013,08,04,19,09,22.30
2013,08,04,19,10,22.30
2013,08,04,19,12,22.30
2013,08,04,19,13,22.30
2013,08,04,19,14,22.30
2013,08,04,19,15,22.20
2013,08,04,19,17,22.20
2013,08,04,19,18,22.10
2013,08,04,19,19,22.00
2013,08,04,19,21,21.90
2013,08,04,19,22,21.80
2013,08,04,19,23,21.80
2013,08,04,19,24,21.70
2013,08,04,19,26,21.70
2013,08,04,19,27,21.60
2013,08,04,19,28,21.60
2013,08,04,19,29,21.50
2013,08,04,19,31,21.40
2013,08,04,19,32,21.40
2013,08,04,19,33,21.40
2013,08,04,19,34,21.30
2013,08,04,19,35,21.30
2013,08,04,19,37,21.30
2013,08,04,19,38,21.20
2013,08,04,19,39,21.20
2013,08,04,19,40,21.10
2013,08,04,19,41,21.10
2013,08,04,19,42,21.10
2013,08,04,19,43,21.10
2013,08,04,19,44,21.10
2013,08,04,19,46,21.10
2013,08,04,19,47,21.10
2013,08,04,19,48,21.10
2013,08,04,19,49,21.10
2013,08,04,19,50,21.00
2013,08,04,19,52,21.00
2013,08,04,19,53,21.00
2013,08,04,19,54,21.00
2013,08,04,19,55,21.00
2013,08,04,19,57,21.00
2013,08,04,19,58,21.00
2013,08,04,19,59,21.00
2013,08,04,20,00,21.00
2013,08,04,20,02,21.00
2013,08,04,20,03,21.00
2013,08,04,20,04,21.00
2013,08,04,20,05,21.00
2013,08,04,20,06,21.00
2013,08,04,20,07,20.90
2013,08,04,20,08,20.90
2013,08,04,20,09,20.90
2013,08,04,20,10,20.90
2013,08,04,20,11,20.90
2013,08,04,20,12,20.90
2013,08,04,20,13,20.90
2013,08,04,20,14,20.80
2013,08,04,20,16,20.80
2013,08,04,20,17,20.80
2013,08,04,20,18,20.80
2013,08,04,20,19,20.80
2013,08,04,20,20,20.80
2013,08,04,20,22,20.70
2013,08,04,20,23,20.70
2013,08,04,20,24,20.70
2013,08,04,20,25,20.70
2013,08,04,20,27,20.60
2013,08,04,20,28,20.60
2013,08,04,20,29,20.60
2013,08,04,20,31,20.50
2013,08,04,20,32,20.50
2013,08,04,20,33,20.40
2013,08,04,20,34,20.40
2013,08,04,20,36,20.40
2013,08,04,20,37,20.40
2013,08,04,20,38,20.40
2013,08,04,20,39,20.40
2013,08,04,20,41,20.40
2013,08,04,20,42,20.30
2013,08,04,20,43,20.30
2013,08,04,20,44,20.30
2013,08,04,20,46,20.30
2013,08,04,20,47,20.20
2013,08,04,20,48,20.20
2013,08,04,20,49,20.20
2013,08,04,20,51,20.10
2013,08,04,20,52,20.10
2013,08,04,20,53,20.10
2013,08,04,20,54,20.10
2013,08,04,20,56,20.00
2013,08,04,20,57,20.00